This demonstration page uses our WeatherBlox Daily Observations layout. Learn more.

Left ArrowRight Arrow

Hourly Observations for December 26, 2020

Temp ( °F °C ) Dew Point ( °F °C ) Humidity (%) Winds ( mph kmh ) Pressure ( in mb ) Visibility ( mi km ) Precip ( " mm )
12:56 am 00:56 Clear 28 -2.2 24 -4.4 85 85 NW 7 11 30.00 1016 10 16 0.00 0.00
1:56 am 01:56 Clear 32 0 26 -3.3 79 79 NW 8 13 29.97 1015 10 16 0.00 0.00
2:56 am 02:56 Clear 26 -3.3 24 -4.4 92 92 Calm 29.96 1015 10 16 0.00 0.00
3:56 am 03:56 Clear 24 -4.4 22 -5.6 91 91 Calm 29.94 1014 10 16 0.00 0.00
4:56 am 04:56 Clear 24 -4.4 21 -6.1 88 88 NNW 6 9 29.95 1014 10 16 0.00 0.00
5:56 am 05:56 Clear 23 -5 20 -6.7 88 88 NW 6 9 29.94 1014 10 16 0.00 0.00
6:56 am 06:56 Clear 22 -5.6 20 -6.7 92 92 NNW 5 7 29.94 1014 10 16 0.00 0.00
7:56 am 07:56 Clear 22 -5.6 19 -7.2 89 89 Calm 29.93 1014 10 16 0.00 0.00
8:56 am 08:56 Sunny 27 -2.8 25 -3.9 92 92 Calm 29.93 1014 10 16 0.00 0.00
9:56 am 09:56 Sunny 36 2.2 30 -1.1 79 79 WSW 6 9 29.93 1014 10 16 0.00 0.00
10:56 am 10:56 Sunny 37 2.8 29 -1.7 73 73 W 6 9 29.91 1013 10 16 0.00 0.00
11:56 am 11:56 Sunny 42 5.6 31 -0.6 65 65 SW 7 11 29.85 1011 10 16 0.00 0.00
12:56 pm 12:56 Sunny 45 7.2 30 -1.1 56 56 SW 9 15 29.82 1010 10 16 0.00 0.00
1:56 pm 13:56 Sunny 48 8.9 31 -0.6 52 52 SW 8 13 29.78 1008 10 16 0.00 0.00
2:56 pm 14:56 Sunny 48 8.9 30 -1.1 50 50 WSW 5 7 29.78 1008 10 16 0.00 0.00
3:56 pm 15:56 Sunny 47 8.3 30 -1.1 52 52 WSW 3 6 29.77 1008 10 16 0.00 0.00
4:56 pm 16:56 Sunny 44 6.7 31 -0.6 60 60 SSW 5 7 29.75 1008 10 16 0.00 0.00
5:56 pm 17:56 Clear 37 2.8 29 -1.7 73 73 NNW 5 7 29.77 1008 10 16 0.00 0.00
6:56 pm 18:56 Clear 33 0.6 28 -2.2 82 82 Calm 29.77 1008 9 14 0.00 0.00
7:56 pm 19:56 Clear 31 -0.6 29 -1.7 92 92 SSE 6 9 29.75 1008 10 16 0.00 0.00
8:56 pm 20:56 Clear 34 1.1 29 -1.7 82 82 SSW 3 6 29.73 1007 10 16 0.00 0.00
9:56 pm 21:56 Clear 29 -1.7 26 -3.3 89 89 Calm 29.72 1007 10 16 0.00 0.00
10:56 pm 22:56 Clear 30 -1.1 27 -2.8 88 88 NW 7 11 29.72 1006 10 16 0.00 0.00
11:56 pm 23:56 Clear 31 -0.6 28 -2.2 89 89 WSW 5 7 29.71 1006 10 16 0.00 0.00

Powered by AerisWeather